This is the latest recevied weather packets stored in our database for station/object KC5DAQ-29. If no packets are shown the sender has not sent any weather packets the latest 10 day(s).
| Time | Temp. | Humidity | Pressure | Rain* | Wind** | Luminosity | Snow |
|---|---|---|---|---|---|---|---|
| 1787862111 | 37.22° C | 79% | 1009.9 hPa | 0 mm | - | 942 W/m² | - |
| 1787862051 | 37.22° C | 79% | 1010 hPa | 0 mm | - | 942 W/m² | - |
| 1787861991 | 37.22° C | 81% | 1010 hPa | 0 mm | - | 942 W/m² | - |
| 1787861930 | 37.22° C | 81% | 1010 hPa | 0 mm | - | 942 W/m² | - |
| 1787861871 | 37.22° C | 81% | 1010 hPa | 0 mm | - | 946 W/m² | - |
| 1787861811 | 37.22° C | 84% | 1010 hPa | 0 mm | - | 946 W/m² | - |
| 1787861751 | 37.22° C | 85% | 1010 hPa | 0 mm | - | 946 W/m² | - |
| 1787861690 | 37.22° C | 87% | 1010 hPa | 0 mm | - | 946 W/m² | - |
| 1787861632 | 37.22° C | 87% | 1010 hPa | 0 mm | - | 946 W/m² | - |
| 1787861573 | 36.67° C | 85% | 1010 hPa | 0 mm | - | 948 W/m² | - |
| 1787861510 | 36.67° C | 85% | 1010 hPa | 0 mm | - | 948 W/m² | - |
| 1787861450 | 36.67° C | 86% | 1010 hPa | 0 mm | - | 949 W/m² | - |
| 1787861390 | 36.67° C | 87% | 1010 hPa | 0 mm | - | 949 W/m² | - |
| 1787861331 | 36.67° C | 87% | 1010.1 hPa | 0 mm | - | 949 W/m² | - |
| 1787861271 | 36.67° C | 86% | 1010.2 hPa | 0 mm | - | 949 W/m² | - |
| 1787861212 | 36.67° C | 86% | 1010.2 hPa | 0 mm | - | 960 W/m² | - |
| 1787861152 | 37.22° C | 90% | 1010.2 hPa | 0 mm | - | 960 W/m² | - |
| 1787861090 | 37.22° C | 90% | 1010.2 hPa | 0 mm | - | 960 W/m² | - |
| 1787861031 | 37.22° C | 90% | 1010.2 hPa | 0 mm | - | 960 W/m² | - |
| 1787860972 | 37.22° C | 90% | 1010.2 hPa | 0 mm | - | 960 W/m² | - |
| 1787860911 | 37.22° C | 90% | 1010.2 hPa | 0 mm | - | 964 W/m² | - |
| 1787860850 | 37.22° C | 88% | 1010.2 hPa | 0 mm | - | 972 W/m² | - |
| 1787860790 | 37.22° C | 92% | 1010.2 hPa | 0 mm | - | 972 W/m² | - |
| 1787860732 | 37.22° C | 92% | 1010.3 hPa | 0 mm | - | 972 W/m² | - |
| 1787860672 | 37.22° C | 92% | 1010.3 hPa | 0 mm | - | 972 W/m² | - |
* Rain latest hour (hover to see other rain measurements)
** Current wind speed in m/s (hover to see current wind gust speed)